Time,TemperatureF,DewpointF,PressureIn,WindDirection,WindDirectionDegrees,WindSpeedMPH,WindSpeedGustMPH,Humidity,HourlyPrecipIn,Conditions,Clouds,dailyrainin,SoftwareType,DateUTC
2013-02-17 00:01:00,18.2,5.4,29.71,North,0,0.0,0.0,57,0.00,,,0.00,WUHU216HW,2013-02-17 05:01:00,
2013-02-17 00:06:00,18.0,5.7,29.71,North,0,0.0,0.0,58,0.00,,,0.00,WUHU216HW,2013-02-17 05:06:00,
2013-02-17 00:11:00,18.0,5.7,29.71,North,0,0.0,0.0,58,0.00,,,0.00,WUHU216HW,2013-02-17 05:11:00,
2013-02-17 00:16:00,17.8,5.9,29.71,North,0,0.0,0.0,59,0.00,,,0.00,WUHU216HW,2013-02-17 05:16:00,
2013-02-17 00:21:00,17.8,6.3,29.70,North,0,0.0,0.0,60,0.00,,,0.00,WUHU216HW,2013-02-17 05:21:00,
2013-02-17 00:26:00,17.8,6.3,29.70,North,0,0.0,0.0,60,0.00,,,0.00,WUHU216HW,2013-02-17 05:26:00,
2013-02-17 00:31:00,17.6,5.8,29.70,North,0,0.0,0.0,59,0.00,,,0.00,WUHU216HW,2013-02-17 05:31:00,
2013-02-17 00:36:00,17.8,5.9,29.69,North,0,0.0,0.0,59,0.00,,,0.00,WUHU216HW,2013-02-17 05:36:00,
2013-02-17 00:41:00,18.0,6.0,29.69,North,0,0.0,0.0,59,0.00,,,0.00,WUHU216HW,2013-02-17 05:41:00,
2013-02-17 00:46:00,18.0,6.0,29.68,North,0,0.0,0.0,59,0.00,,,0.00,WUHU216HW,2013-02-17 05:46:00,
2013-02-17 00:51:00,18.0,6.0,29.68,North,0,0.0,0.0,59,0.00,,,0.00,WUHU216HW,2013-02-17 05:51:00,
2013-02-17 00:56:00,18.0,6.0,29.68,North,0,0.0,0.0,59,0.00,,,0.00,WUHU216HW,2013-02-17 05:56:00,
2013-02-17 01:01:00,17.8,5.9,29.67,North,0,0.0,0.0,59,0.00,,,0.00,WUHU216HW,2013-02-17 06:01:00,
2013-02-17 01:06:00,17.8,5.9,29.67,North,0,0.0,0.0,59,0.00,,,0.00,WUHU216HW,2013-02-17 06:06:00,
2013-02-17 01:11:00,17.8,5.9,29.67,North,0,0.0,0.0,59,0.00,,,0.00,WUHU216HW,2013-02-17 06:11:00,
2013-02-17 01:16:00,17.8,5.9,29.67,North,0,0.0,0.0,59,0.00,,,0.00,WUHU216HW,2013-02-17 06:16:00,
2013-02-17 01:21:00,18.0,4.9,29.67,North,0,0.0,0.0,56,0.00,,,0.00,WUHU216HW,2013-02-17 06:21:00,
2013-02-17 01:26:00,18.4,4.8,29.66,North,0,0.0,0.0,55,0.00,,,0.00,WUHU216HW,2013-02-17 06:26:00,
2013-02-17 01:31:00,18.2,4.6,29.66,North,0,0.0,0.0,55,0.00,,,0.00,WUHU216HW,2013-02-17 06:31:00,
2013-02-17 01:36:00,18.2,4.6,29.65,North,0,0.0,0.0,55,0.00,,,0.00,WUHU216HW,2013-02-17 06:36:00,
2013-02-17 01:41:00,18.0,4.5,29.65,North,0,0.0,0.0,55,0.00,,,0.00,WUHU216HW,2013-02-17 06:41:00,
2013-02-17 01:46:00,17.6,4.1,29.65,North,0,0.0,0.0,55,0.00,,,0.00,WUHU216HW,2013-02-17 06:46:00,
2013-02-17 01:51:00,17.8,4.3,29.66,North,0,0.0,0.0,55,0.00,,,0.00,WUHU216HW,2013-02-17 06:51:00,
2013-02-17 01:56:00,17.8,4.3,29.66,North,0,0.0,0.0,55,0.00,,,0.00,WUHU216HW,2013-02-17 06:56:00,
2013-02-17 02:01:00,18.0,4.1,29.66,North,0,0.0,0.0,54,0.00,,,0.00,WUHU216HW,2013-02-17 07:01:00,
2013-02-17 02:07:00,18.0,4.5,29.66,North,0,0.0,0.0,55,0.00,,,0.00,WUHU216HW,2013-02-17 07:07:00,
2013-02-17 02:12:00,18.0,4.5,29.66,North,0,0.0,0.0,55,0.00,,,0.00,WUHU216HW,2013-02-17 07:12:00,
2013-02-17 02:17:00,17.6,4.5,29.66,North,0,0.0,0.0,56,0.00,,,0.00,WUHU216HW,2013-02-17 07:17:00,
2013-02-17 02:22:00,17.6,5.0,29.66,North,0,0.0,0.0,57,0.00,,,0.00,WUHU216HW,2013-02-17 07:22:00,
2013-02-17 02:27:00,17.6,4.5,29.66,North,0,0.0,0.0,56,0.00,,,0.00,WUHU216HW,2013-02-17 07:27:00,
2013-02-17 02:32:00,17.6,5.0,29.66,North,0,0.0,0.0,57,0.00,,,0.00,WUHU216HW,2013-02-17 07:32:00,
2013-02-17 02:37:00,17.6,5.0,29.66,North,0,0.0,0.0,57,0.00,,,0.00,WUHU216HW,2013-02-17 07:37:00,
2013-02-17 02:42:00,17.5,4.8,29.65,North,0,0.0,0.0,57,0.00,,,0.00,WUHU216HW,2013-02-17 07:42:00,
2013-02-17 02:47:00,17.5,5.1,29.64,North,0,0.0,0.0,58,0.00,,,0.00,WUHU216HW,2013-02-17 07:47:00,
2013-02-17 02:52:00,17.5,4.8,29.65,North,0,0.0,0.0,57,0.00,,,0.00,WUHU216HW,2013-02-17 07:52:00,
2013-02-17 02:57:00,17.3,5.0,29.65,North,0,0.0,0.0,58,0.00,,,0.00,WUHU216HW,2013-02-17 07:57:00,
2013-02-17 03:02:00,17.1,5.2,29.64,North,0,0.0,0.0,59,0.00,,,0.00,WUHU216HW,2013-02-17 08:02:00,
2013-02-17 03:07:00,16.9,5.1,29.64,North,0,0.0,0.0,59,0.00,,,0.00,WUHU216HW,2013-02-17 08:07:00,
2013-02-17 03:12:00,16.9,5.4,29.64,North,0,0.0,0.0,60,0.00,,,0.00,WUHU216HW,2013-02-17 08:12:00,
2013-02-17 03:17:00,16.9,5.1,29.64,North,0,0.0,0.0,59,0.00,,,0.00,WUHU216HW,2013-02-17 08:17:00,
2013-02-17 03:22:00,16.9,5.1,29.63,North,0,0.0,0.0,59,0.00,,,0.00,WUHU216HW,2013-02-17 08:22:00,
2013-02-17 03:27:00,16.9,4.6,29.63,North,0,0.0,0.0,58,0.00,,,0.00,WUHU216HW,2013-02-17 08:27:00,
2013-02-17 03:32:00,16.9,4.6,29.64,North,0,0.0,0.0,58,0.00,,,0.00,WUHU216HW,2013-02-17 08:32:00,
2013-02-17 03:37:00,16.7,4.9,29.63,North,0,0.0,0.0,59,0.00,,,0.00,WUHU216HW,2013-02-17 08:37:00,
2013-02-17 03:42:00,16.9,4.2,29.63,North,0,0.0,0.0,57,0.00,,,0.00,WUHU216HW,2013-02-17 08:42:00,
2013-02-17 03:47:00,16.7,4.4,29.62,North,0,0.0,0.0,58,0.00,,,0.00,WUHU216HW,2013-02-17 08:47:00,
2013-02-17 03:52:00,16.6,3.9,29.62,North,0,0.0,0.0,57,0.00,,,0.00,WUHU216HW,2013-02-17 08:52:00,
2013-02-17 03:57:00,16.6,3.9,29.62,North,0,0.0,0.0,57,0.00,,,0.00,WUHU216HW,2013-02-17 08:57:00,
2013-02-17 04:02:00,16.4,3.7,29.62,North,0,0.0,0.0,57,0.00,,,0.00,WUHU216HW,2013-02-17 09:02:00,
2013-02-17 04:07:00,16.4,4.1,29.62,North,0,0.0,0.0,58,0.00,,,0.00,WUHU216HW,2013-02-17 09:07:00,
2013-02-17 04:12:00,16.2,4.0,29.62,North,0,0.0,0.0,58,0.00,,,0.00,WUHU216HW,2013-02-17 09:12:00,
2013-02-17 04:17:00,16.2,4.3,29.62,North,0,0.0,0.0,59,0.00,,,0.00,WUHU216HW,2013-02-17 09:17:00,
2013-02-17 04:22:00,16.0,4.5,29.62,North,0,0.0,0.0,60,0.00,,,0.00,WUHU216HW,2013-02-17 09:22:00,
2013-02-17 04:27:00,15.8,4.7,29.62,North,0,0.0,0.0,61,0.00,,,0.00,WUHU216HW,2013-02-17 09:27:00,
2013-02-17 04:32:00,15.8,4.7,29.62,North,0,0.0,0.0,61,0.00,,,0.00,WUHU216HW,2013-02-17 09:32:00,
2013-02-17 04:37:00,15.7,4.5,29.62,North,0,0.0,0.0,61,0.00,,,0.00,WUHU216HW,2013-02-17 09:37:00,
2013-02-17 04:42:00,15.5,4.3,29.62,North,0,0.0,0.0,61,0.00,,,0.00,WUHU216HW,2013-02-17 09:42:00,
2013-02-17 04:47:00,15.5,4.7,29.62,North,0,0.0,0.0,62,0.00,,,0.00,WUHU216HW,2013-02-17 09:47:00,
2013-02-17 04:53:00,15.1,4.3,29.62,North,0,0.0,0.0,62,0.00,,,0.00,WUHU216HW,2013-02-17 09:53:00,
2013-02-17 04:58:00,15.1,4.7,29.61,North,0,0.0,0.0,63,0.00,,,0.00,WUHU216HW,2013-02-17 09:58:00,
2013-02-17 05:03:00,15.1,4.3,29.62,North,0,0.0,0.0,62,0.00,,,0.00,WUHU216HW,2013-02-17 10:03:00,
2013-02-17 05:08:00,15.1,4.3,29.62,North,0,0.0,0.0,62,0.00,,,0.00,WUHU216HW,2013-02-17 10:08:00,
2013-02-17 05:13:00,14.9,4.2,29.61,North,0,0.0,0.0,62,0.00,,,0.00,WUHU216HW,2013-02-17 10:13:00,
2013-02-17 05:18:00,14.9,4.5,29.61,North,0,0.0,0.0,63,0.00,,,0.00,WUHU216HW,2013-02-17 10:18:00,
2013-02-17 05:23:00,14.9,4.5,29.60,North,0,0.0,0.0,63,0.00,,,0.00,WUHU216HW,2013-02-17 10:23:00,
2013-02-17 05:28:00,14.8,4.4,29.60,North,0,0.0,0.0,63,0.00,,,0.00,WUHU216HW,2013-02-17 10:28:00,
2013-02-17 05:33:00,14.8,4.7,29.60,North,0,0.0,0.0,64,0.00,,,0.00,WUHU216HW,2013-02-17 10:33:00,
2013-02-17 05:38:00,14.8,4.7,29.59,North,0,0.0,0.0,64,0.00,,,0.00,WUHU216HW,2013-02-17 10:38:00,
2013-02-17 05:43:00,14.8,4.7,29.59,North,0,0.0,0.0,64,0.00,,,0.00,WUHU216HW,2013-02-17 10:43:00,
2013-02-17 05:48:00,14.8,5.0,29.60,North,0,0.0,0.0,65,0.00,,,0.00,WUHU216HW,2013-02-17 10:48:00,
2013-02-17 05:53:00,14.8,4.7,29.60,North,0,0.0,0.0,64,0.00,,,0.00,WUHU216HW,2013-02-17 10:53:00,
2013-02-17 05:58:00,14.8,5.0,29.61,North,0,0.0,0.0,65,0.00,,,0.00,WUHU216HW,2013-02-17 10:58:00,
2013-02-17 06:03:00,14.8,5.0,29.60,North,0,0.0,0.0,65,0.00,,,0.00,WUHU216HW,2013-02-17 11:03:00,
2013-02-17 06:08:00,14.8,5.0,29.60,North,0,0.0,0.0,65,0.00,,,0.00,WUHU216HW,2013-02-17 11:08:00,
2013-02-17 06:13:00,14.6,5.2,29.60,North,0,0.0,0.0,66,0.00,,,0.00,WUHU216HW,2013-02-17 11:13:00,
2013-02-17 06:18:00,14.6,5.2,29.59,North,0,0.0,0.0,66,0.00,,,0.00,WUHU216HW,2013-02-17 11:18:00,
2013-02-17 06:23:00,14.6,5.2,29.59,North,0,0.0,0.0,66,0.00,,,0.00,WUHU216HW,2013-02-17 11:23:00,
2013-02-17 06:28:00,14.4,5.0,29.59,North,0,0.0,0.0,66,0.00,,,0.00,WUHU216HW,2013-02-17 11:28:00,
2013-02-17 06:33:00,14.4,5.4,29.58,North,0,0.0,0.0,67,0.00,,,0.00,WUHU216HW,2013-02-17 11:33:00,
2013-02-17 06:38:00,14.4,5.0,29.58,North,0,0.0,0.0,66,0.00,,,0.00,WUHU216HW,2013-02-17 11:38:00,
2013-02-17 06:43:00,14.4,5.4,29.59,North,0,0.0,0.0,67,0.00,,,0.00,WUHU216HW,2013-02-17 11:43:00,
2013-02-17 06:48:00,14.4,5.4,29.59,North,0,0.0,0.0,67,0.00,,,0.00,WUHU216HW,2013-02-17 11:48:00,
2013-02-17 06:53:00,14.2,5.2,29.59,North,0,0.0,0.0,67,0.00,,,0.00,WUHU216HW,2013-02-17 11:53:00,
2013-02-17 06:58:00,14.4,5.8,29.58,North,0,0.0,0.0,68,0.00,,,0.00,WUHU216HW,2013-02-17 11:58:00,
2013-02-17 07:03:00,14.4,5.4,29.58,North,0,0.0,0.0,67,0.00,,,0.00,WUHU216HW,2013-02-17 12:03:00,
2013-02-17 07:08:00,14.2,5.2,29.58,North,0,0.0,0.0,67,0.00,,,0.00,WUHU216HW,2013-02-17 12:08:00,
2013-02-17 07:13:00,14.2,5.6,29.57,North,0,0.0,0.0,68,0.00,,,0.00,WUHU216HW,2013-02-17 12:13:00,
2013-02-17 07:18:00,14.0,5.4,29.57,North,0,0.0,0.0,68,0.00,,,0.00,WUHU216HW,2013-02-17 12:18:00,
2013-02-17 07:23:00,14.0,5.4,29.57,North,0,0.0,0.0,68,0.00,,,0.00,WUHU216HW,2013-02-17 12:23:00,
2013-02-17 07:28:00,14.0,5.4,29.57,North,0,0.0,0.0,68,0.00,,,0.00,WUHU216HW,2013-02-17 12:28:00,
2013-02-17 07:33:00,14.0,5.4,29.56,North,0,0.0,0.0,68,0.00,,,0.00,WUHU216HW,2013-02-17 12:33:00,
2013-02-17 07:38:00,14.0,5.4,29.56,North,0,0.0,0.0,68,0.00,,,0.00,WUHU216HW,2013-02-17 12:38:00,
2013-02-17 07:43:00,14.0,5.4,29.56,North,0,0.0,0.0,68,0.00,,,0.00,WUHU216HW,2013-02-17 12:43:00,
2013-02-17 07:49:00,14.0,5.4,29.55,North,0,0.0,0.0,68,0.00,,,0.00,WUHU216HW,2013-02-17 12:49:00,
2013-02-17 07:54:00,14.0,5.1,29.55,North,0,0.0,0.0,67,0.00,,,0.00,WUHU216HW,2013-02-17 12:54:00,
2013-02-17 07:59:00,14.0,5.4,29.55,North,0,0.0,0.0,68,0.00,,,0.00,WUHU216HW,2013-02-17 12:59:00,
2013-02-17 08:04:00,14.0,5.4,29.55,North,0,0.0,0.0,68,0.00,,,0.00,WUHU216HW,2013-02-17 13:04:00,
2013-02-17 08:09:00,14.2,5.6,29.55,North,0,0.0,0.0,68,0.00,,,0.00,WUHU216HW,2013-02-17 13:09:00,
2013-02-17 08:14:00,14.4,5.4,29.54,North,0,0.0,0.0,67,0.00,,,0.00,WUHU216HW,2013-02-17 13:14:00,
2013-02-17 08:19:00,14.4,5.4,29.54,North,0,0.0,0.0,67,0.00,,,0.00,WUHU216HW,2013-02-17 13:19:00,
2013-02-17 08:24:00,14.6,5.6,29.54,North,0,0.0,0.0,67,0.00,,,0.00,WUHU216HW,2013-02-17 13:24:00,
2013-02-17 08:29:00,14.8,5.8,29.54,North,0,0.0,0.0,67,0.00,,,0.00,WUHU216HW,2013-02-17 13:29:00,
2013-02-17 08:34:00,14.6,5.2,29.54,North,0,0.0,0.0,66,0.00,,,0.00,WUHU216HW,2013-02-17 13:34:00,
2013-02-17 08:39:00,14.4,5.4,29.53,North,0,0.0,0.0,67,0.00,,,0.00,WUHU216HW,2013-02-17 13:39:00,
2013-02-17 08:44:00,14.4,5.4,29.53,North,0,0.0,0.0,67,0.00,,,0.00,WUHU216HW,2013-02-17 13:44:00,
2013-02-17 08:49:00,14.6,5.2,29.53,North,0,0.0,0.0,66,0.00,,,0.00,WUHU216HW,2013-02-17 13:49:00,
2013-02-17 08:54:00,14.6,5.2,29.52,North,0,0.0,0.0,66,0.00,,,0.00,WUHU216HW,2013-02-17 13:54:00,
2013-02-17 08:59:00,14.8,5.4,29.52,North,0,0.0,0.0,66,0.00,,,0.00,WUHU216HW,2013-02-17 13:59:00,
2013-02-17 09:04:00,14.8,5.4,29.52,North,0,0.0,0.0,66,0.00,,,0.00,WUHU216HW,2013-02-17 14:04:00,
2013-02-17 09:10:00,14.8,5.0,29.52,North,0,0.0,0.0,65,0.00,,,0.00,WUHU216HW,2013-02-17 14:10:00,
2013-02-17 09:15:00,14.8,5.0,29.51,North,0,0.0,0.0,65,0.00,,,0.00,WUHU216HW,2013-02-17 14:15:00,
2013-02-17 09:20:00,14.9,5.2,29.51,North,0,0.0,0.0,65,0.00,,,0.00,WUHU216HW,2013-02-17 14:20:00,
2013-02-17 09:25:00,15.1,5.0,29.51,North,0,0.0,0.0,64,0.00,,,0.00,WUHU216HW,2013-02-17 14:25:00,
2013-02-17 09:30:00,15.3,4.9,29.51,North,0,0.0,0.0,63,0.00,,,0.00,WUHU216HW,2013-02-17 14:30:00,
2013-02-17 09:35:00,15.5,4.7,29.51,North,0,0.0,0.0,62,0.00,,,0.00,WUHU216HW,2013-02-17 14:35:00,
2013-02-17 09:40:00,15.5,4.7,29.50,North,0,0.0,0.0,62,0.00,,,0.00,WUHU216HW,2013-02-17 14:40:00,
2013-02-17 09:45:00,15.5,4.7,29.50,North,0,0.0,0.0,62,0.00,,,0.00,WUHU216HW,2013-02-17 14:45:00,
2013-02-17 09:50:00,15.5,5.1,29.50,North,0,0.0,0.0,63,0.00,,,0.00,WUHU216HW,2013-02-17 14:50:00,
2013-02-17 09:55:00,15.3,4.5,29.50,North,0,0.0,0.0,62,0.00,,,0.00,WUHU216HW,2013-02-17 14:55:00,
2013-02-17 10:00:00,15.5,4.7,29.50,North,0,0.0,0.0,62,0.00,,,0.00,WUHU216HW,2013-02-17 15:00:00,
2013-02-17 10:05:00,15.3,4.1,29.50,North,0,0.0,0.0,61,0.00,,,0.00,WUHU216HW,2013-02-17 15:05:00,
2013-02-17 10:10:00,15.3,4.1,29.50,North,0,0.0,0.0,61,0.00,,,0.00,WUHU216HW,2013-02-17 15:10:00,
2013-02-17 10:15:00,15.3,4.5,29.50,North,0,0.0,0.0,62,0.00,,,0.00,WUHU216HW,2013-02-17 15:15:00,
2013-02-17 10:20:00,15.5,4.3,29.50,North,0,0.0,0.0,61,0.00,,,0.00,WUHU216HW,2013-02-17 15:20:00,
2013-02-17 10:25:00,15.5,4.3,29.50,North,0,0.0,0.0,61,0.00,,,0.00,WUHU216HW,2013-02-17 15:25:00,
2013-02-17 10:30:00,15.7,4.5,29.49,North,0,0.0,0.0,61,0.00,,,0.00,WUHU216HW,2013-02-17 15:30:00,
2013-02-17 10:35:00,15.7,4.5,29.49,North,0,0.0,0.0,61,0.00,,,0.00,WUHU216HW,2013-02-17 15:35:00,
2013-02-17 10:40:00,16.0,4.9,29.49,North,0,0.0,0.0,61,0.00,,,0.00,WUHU216HW,2013-02-17 15:40:00,
2013-02-17 10:45:00,16.2,5.1,29.49,North,0,0.0,0.0,61,0.00,,,0.00,WUHU216HW,2013-02-17 15:45:00,
2013-02-17 10:50:00,16.2,5.1,29.49,North,0,0.0,0.0,61,0.00,,,0.00,WUHU216HW,2013-02-17 15:50:00,
2013-02-17 10:55:00,16.4,5.2,29.49,North,0,0.0,0.0,61,0.00,,,0.00,WUHU216HW,2013-02-17 15:55:00,
2013-02-17 11:00:00,16.4,5.2,29.49,North,0,0.0,0.0,61,0.00,,,0.00,WUHU216HW,2013-02-17 16:00:00,
2013-02-17 11:05:00,16.4,5.2,29.48,North,0,0.0,0.0,61,0.00,,,0.00,WUHU216HW,2013-02-17 16:05:00,
2013-02-17 11:10:00,16.6,5.0,29.48,North,0,0.0,0.0,60,0.00,,,0.00,WUHU216HW,2013-02-17 16:10:00,
2013-02-17 11:15:00,16.6,5.0,29.48,North,0,0.0,0.0,60,0.00,,,0.00,WUHU216HW,2013-02-17 16:15:00,
2013-02-17 11:20:00,16.6,4.7,29.48,North,0,0.0,0.0,59,0.00,,,0.00,WUHU216HW,2013-02-17 16:20:00,
2013-02-17 11:25:00,16.6,5.0,29.48,North,0,0.0,0.0,60,0.00,,,0.00,WUHU216HW,2013-02-17 16:25:00,
2013-02-17 11:30:00,16.6,5.0,29.47,North,0,0.0,0.0,60,0.00,,,0.00,WUHU216HW,2013-02-17 16:30:00,
2013-02-17 11:35:00,16.6,4.7,29.47,North,0,0.0,0.0,59,0.00,,,0.00,WUHU216HW,2013-02-17 16:35:00,
2013-02-17 11:40:00,16.7,4.9,29.47,North,0,0.0,0.0,59,0.00,,,0.00,WUHU216HW,2013-02-17 16:40:00,
2013-02-17 11:45:00,16.9,5.4,29.46,North,0,0.0,0.0,60,0.00,,,0.00,WUHU216HW,2013-02-17 16:45:00,
2013-02-17 11:50:00,16.9,5.1,29.46,North,0,0.0,0.0,59,0.00,,,0.00,WUHU216HW,2013-02-17 16:50:00,
2013-02-17 11:55:00,16.6,4.2,29.46,North,0,0.0,0.0,58,0.00,,,0.00,WUHU216HW,2013-02-17 16:55:00,
2013-02-17 12:00:00,16.6,5.0,29.46,North,0,0.0,0.0,60,0.00,,,0.00,WUHU216HW,2013-02-17 17:00:00,
2013-02-17 12:05:00,16.9,4.2,29.46,North,0,0.0,0.0,57,0.00,,,0.00,WUHU216HW,2013-02-17 17:05:00,
2013-02-17 12:10:00,16.9,4.2,29.46,North,0,0.0,0.0,57,0.00,,,0.00,WUHU216HW,2013-02-17 17:10:00,
2013-02-17 12:15:00,16.6,3.9,29.46,North,0,0.0,0.0,57,0.00,,,0.00,WUHU216HW,2013-02-17 17:15:00,
2013-02-17 12:20:00,16.2,4.0,29.46,North,0,0.0,0.0,58,0.00,,,0.00,WUHU216HW,2013-02-17 17:20:00,
2013-02-17 12:25:00,16.2,4.0,29.46,North,0,0.0,0.0,58,0.00,,,0.00,WUHU216HW,2013-02-17 17:25:00,
2013-02-17 12:30:00,16.2,3.5,29.46,North,0,0.0,0.0,57,0.00,,,0.00,WUHU216HW,2013-02-17 17:30:00,
2013-02-17 12:35:00,16.0,4.2,29.46,North,0,0.0,0.0,59,0.00,,,0.00,WUHU216HW,2013-02-17 17:35:00,
2013-02-17 12:40:00,16.2,3.5,29.46,North,0,0.0,0.0,57,0.00,,,0.00,WUHU216HW,2013-02-17 17:40:00,
2013-02-17 12:45:00,15.8,3.2,29.46,North,0,0.0,0.0,57,0.00,,,0.00,WUHU216HW,2013-02-17 17:45:00,
2013-02-17 12:50:00,15.7,3.4,29.46,North,0,0.0,0.0,58,0.00,,,0.00,WUHU216HW,2013-02-17 17:50:00,
2013-02-17 12:55:00,15.8,3.2,29.46,North,0,0.0,0.0,57,0.00,,,0.00,WUHU216HW,2013-02-17 17:55:00,
2013-02-17 13:00:00,15.5,2.4,29.46,North,0,0.0,0.0,56,0.00,,,0.00,WUHU216HW,2013-02-17 18:00:00,
2013-02-17 13:05:00,15.8,2.8,29.46,North,0,0.0,0.0,56,0.00,,,0.00,WUHU216HW,2013-02-17 18:05:00,
2013-02-17 13:10:00,15.8,2.8,29.46,North,0,0.0,0.0,56,0.00,,,0.00,WUHU216HW,2013-02-17 18:10:00,
2013-02-17 13:15:00,16.0,2.6,29.46,North,0,0.0,0.0,55,0.00,,,0.00,WUHU216HW,2013-02-17 18:15:00,
2013-02-17 13:20:00,16.2,2.8,29.46,North,0,0.0,0.0,55,0.00,,,0.00,WUHU216HW,2013-02-17 18:20:00,
2013-02-17 13:25:00,16.2,2.8,29.46,North,0,0.0,0.0,55,0.00,,,0.00,WUHU216HW,2013-02-17 18:25:00,
2013-02-17 13:30:00,16.2,2.4,29.46,North,0,0.0,0.0,54,0.00,,,0.00,WUHU216HW,2013-02-17 18:30:00,
2013-02-17 13:35:00,16.0,2.6,29.46,North,0,0.0,0.0,55,0.00,,,0.00,WUHU216HW,2013-02-17 18:35:00,
2013-02-17 13:40:00,15.8,2.1,29.46,North,0,0.0,0.0,54,0.00,,,0.00,WUHU216HW,2013-02-17 18:40:00,
2013-02-17 13:45:00,16.2,2.4,29.46,North,0,0.0,0.0,54,0.00,,,0.00,WUHU216HW,2013-02-17 18:45:00,
2013-02-17 13:50:00,16.2,2.0,29.46,North,0,0.0,0.0,53,0.00,,,0.00,WUHU216HW,2013-02-17 18:50:00,
2013-02-17 13:55:00,16.2,2.4,29.46,North,0,0.0,0.0,54,0.00,,,0.00,WUHU216HW,2013-02-17 18:55:00,
2013-02-17 14:00:00,16.6,2.3,29.45,North,0,0.0,0.0,53,0.00,,,0.00,WUHU216HW,2013-02-17 19:00:00,
2013-02-17 14:05:00,16.4,1.8,29.45,North,0,0.0,0.0,52,0.00,,,0.00,WUHU216HW,2013-02-17 19:05:00,
2013-02-17 14:11:00,16.6,2.0,29.45,North,0,0.0,0.0,52,0.00,,,0.00,WUHU216HW,2013-02-17 19:11:00,
2013-02-17 14:16:00,16.6,2.0,29.45,North,0,0.0,0.0,52,0.00,,,0.00,WUHU216HW,2013-02-17 19:16:00,
2013-02-17 14:21:00,16.9,2.3,29.45,North,0,0.0,0.0,52,0.00,,,0.00,WUHU216HW,2013-02-17 19:21:00,
2013-02-17 14:26:00,16.7,2.2,29.45,North,0,0.0,0.0,52,0.00,,,0.00,WUHU216HW,2013-02-17 19:26:00,
2013-02-17 14:31:00,16.9,2.3,29.45,North,0,0.0,0.0,52,0.00,,,0.00,WUHU216HW,2013-02-17 19:31:00,
2013-02-17 14:36:00,16.9,2.3,29.45,North,0,0.0,0.0,52,0.00,,,0.00,WUHU216HW,2013-02-17 19:36:00,
2013-02-17 14:41:00,16.9,2.3,29.45,North,0,0.0,0.0,52,0.00,,,0.00,WUHU216HW,2013-02-17 19:41:00,
2013-02-17 14:46:00,16.9,2.3,29.45,North,0,0.0,0.0,52,0.00,,,0.00,WUHU216HW,2013-02-17 19:46:00,
2013-02-17 14:51:00,16.9,3.1,29.45,North,0,0.0,0.0,54,0.00,,,0.00,WUHU216HW,2013-02-17 19:51:00,
2013-02-17 14:56:00,16.9,2.7,29.45,North,0,0.0,0.0,53,0.00,,,0.00,WUHU216HW,2013-02-17 19:56:00,
2013-02-17 15:01:00,16.9,3.1,29.45,North,0,0.0,0.0,54,0.00,,,0.00,WUHU216HW,2013-02-17 20:01:00,
2013-02-17 15:06:00,16.7,2.9,29.46,North,0,0.0,0.0,54,0.00,,,0.00,WUHU216HW,2013-02-17 20:06:00,
2013-02-17 15:11:00,16.6,2.7,29.46,North,0,0.0,0.0,54,0.00,,,0.00,WUHU216HW,2013-02-17 20:11:00,
2013-02-17 15:16:00,16.4,2.5,29.46,North,0,0.0,0.0,54,0.00,,,0.00,WUHU216HW,2013-02-17 20:16:00,
2013-02-17 15:21:00,16.6,2.7,29.46,North,0,0.0,0.0,54,0.00,,,0.00,WUHU216HW,2013-02-17 20:21:00,
2013-02-17 15:26:00,16.2,2.8,29.46,North,0,0.0,0.0,55,0.00,,,0.00,WUHU216HW,2013-02-17 20:26:00,
2013-02-17 15:31:00,16.4,2.5,29.46,North,0,0.0,0.0,54,0.00,,,0.00,WUHU216HW,2013-02-17 20:31:00,
2013-02-17 15:36:00,16.2,2.4,29.46,North,0,0.0,0.0,54,0.00,,,0.00,WUHU216HW,2013-02-17 20:36:00,
2013-02-17 15:41:00,16.0,2.3,29.46,North,0,0.0,0.0,54,0.00,,,0.00,WUHU216HW,2013-02-17 20:41:00,
2013-02-17 15:46:00,16.2,2.4,29.46,North,0,0.0,0.0,54,0.00,,,0.00,WUHU216HW,2013-02-17 20:46:00,
2013-02-17 15:51:00,16.0,2.6,29.47,North,0,0.0,0.0,55,0.00,,,0.00,WUHU216HW,2013-02-17 20:51:00,
2013-02-17 15:56:00,15.8,1.7,29.47,North,0,0.0,0.0,53,0.00,,,0.00,WUHU216HW,2013-02-17 20:56:00,
2013-02-17 16:01:00,15.5,1.4,29.47,North,0,0.0,0.0,53,0.00,,,0.00,WUHU216HW,2013-02-17 21:01:00,
2013-02-17 16:06:00,15.3,1.9,29.47,North,0,0.0,0.0,55,0.00,,,0.00,WUHU216HW,2013-02-17 21:06:00,
2013-02-17 16:11:00,15.1,2.2,29.48,North,0,0.0,0.0,56,0.00,,,0.00,WUHU216HW,2013-02-17 21:11:00,
2013-02-17 16:16:00,15.1,1.7,29.48,North,0,0.0,0.0,55,0.00,,,0.00,WUHU216HW,2013-02-17 21:16:00,
2013-02-17 16:21:00,15.1,1.7,29.48,North,0,0.0,0.0,55,0.00,,,0.00,WUHU216HW,2013-02-17 21:21:00,
2013-02-17 16:26:00,15.3,2.4,29.48,North,0,0.0,0.0,56,0.00,,,0.00,WUHU216HW,2013-02-17 21:26:00,
2013-02-17 16:31:00,15.3,2.4,29.48,North,0,0.0,0.0,56,0.00,,,0.00,WUHU216HW,2013-02-17 21:31:00,
2013-02-17 16:36:00,15.5,2.1,29.49,North,0,0.0,0.0,55,0.00,,,0.00,WUHU216HW,2013-02-17 21:36:00,
2013-02-17 16:41:00,15.3,1.9,29.49,North,0,0.0,0.0,55,0.00,,,0.00,WUHU216HW,2013-02-17 21:41:00,
2013-02-17 16:46:00,15.3,1.9,29.49,North,0,0.0,0.0,55,0.00,,,0.00,WUHU216HW,2013-02-17 21:46:00,
2013-02-17 16:51:00,15.3,2.4,29.49,North,0,0.0,0.0,56,0.00,,,0.00,WUHU216HW,2013-02-17 21:51:00,
2013-02-17 16:56:00,15.3,2.4,29.49,North,0,0.0,0.0,56,0.00,,,0.00,WUHU216HW,2013-02-17 21:56:00,
2013-02-17 17:01:00,15.3,2.7,29.49,North,0,0.0,0.0,57,0.00,,,0.00,WUHU216HW,2013-02-17 22:01:00,
2013-02-17 17:06:00,15.5,2.1,29.49,North,0,0.0,0.0,55,0.00,,,0.00,WUHU216HW,2013-02-17 22:06:00,
2013-02-17 17:11:00,15.5,2.4,29.50,North,0,0.0,0.0,56,0.00,,,0.00,WUHU216HW,2013-02-17 22:11:00,
2013-02-17 17:16:00,15.3,2.4,29.50,North,0,0.0,0.0,56,0.00,,,0.00,WUHU216HW,2013-02-17 22:16:00,
2013-02-17 17:21:00,15.1,2.2,29.50,North,0,0.0,0.0,56,0.00,,,0.00,WUHU216HW,2013-02-17 22:21:00,
2013-02-17 17:26:00,15.1,2.5,29.51,North,0,0.0,0.0,57,0.00,,,0.00,WUHU216HW,2013-02-17 22:26:00,
2013-02-17 17:31:00,15.1,2.9,29.51,North,0,0.0,0.0,58,0.00,,,0.00,WUHU216HW,2013-02-17 22:31:00,
2013-02-17 17:36:00,15.1,2.5,29.51,North,0,0.0,0.0,57,0.00,,,0.00,WUHU216HW,2013-02-17 22:36:00,
2013-02-17 17:41:00,14.9,2.3,29.51,North,0,0.0,0.0,57,0.00,,,0.00,WUHU216HW,2013-02-17 22:41:00,
2013-02-17 17:46:00,14.9,2.3,29.51,North,0,0.0,0.0,57,0.00,,,0.00,WUHU216HW,2013-02-17 22:46:00,
2013-02-17 17:51:00,14.9,2.3,29.52,North,0,0.0,0.0,57,0.00,,,0.00,WUHU216HW,2013-02-17 22:51:00,
2013-02-17 17:56:00,14.8,2.6,29.52,North,0,0.0,0.0,58,0.00,,,0.00,WUHU216HW,2013-02-17 22:56:00,
2013-02-17 18:01:00,14.8,2.6,29.52,North,0,0.0,0.0,58,0.00,,,0.00,WUHU216HW,2013-02-17 23:01:00,
2013-02-17 18:07:00,14.8,2.6,29.52,North,0,0.0,0.0,58,0.00,,,0.00,WUHU216HW,2013-02-17 23:07:00,
2013-02-17 18:12:00,14.8,2.6,29.52,North,0,0.0,0.0,58,0.00,,,0.00,WUHU216HW,2013-02-17 23:12:00,
2013-02-17 18:17:00,14.8,2.6,29.53,North,0,0.0,0.0,58,0.00,,,0.00,WUHU216HW,2013-02-17 23:17:00,
2013-02-17 18:22:00,14.9,2.3,29.53,North,0,0.0,0.0,57,0.00,,,0.00,WUHU216HW,2013-02-17 23:22:00,
2013-02-17 18:27:00,14.8,2.6,29.53,North,0,0.0,0.0,58,0.00,,,0.00,WUHU216HW,2013-02-17 23:27:00,
2013-02-17 18:32:00,14.8,2.2,29.54,North,0,0.0,0.0,57,0.00,,,0.00,WUHU216HW,2013-02-17 23:32:00,
2013-02-17 18:37:00,14.4,2.3,29.54,North,0,0.0,0.0,58,0.00,,,0.00,WUHU216HW,2013-02-17 23:37:00,
2013-02-17 18:42:00,14.0,1.9,29.54,North,0,0.0,0.0,58,0.00,,,0.00,WUHU216HW,2013-02-17 23:42:00,
2013-02-17 18:47:00,14.0,1.9,29.54,North,0,0.0,0.0,58,0.00,,,0.00,WUHU216HW,2013-02-17 23:47:00,
2013-02-17 18:52:00,13.9,1.4,29.54,North,0,0.0,0.0,57,0.00,,,0.00,WUHU216HW,2013-02-17 23:52:00,
2013-02-17 18:57:00,13.7,1.5,29.54,North,0,0.0,0.0,58,0.00,,,0.00,WUHU216HW,2013-02-17 23:57:00,
2013-02-17 19:02:00,13.5,1.4,29.54,North,0,0.0,0.0,58,0.00,,,0.00,WUHU216HW,2013-02-18 00:02:00,
2013-02-17 19:07:00,13.3,1.2,29.55,North,0,0.0,0.0,58,0.00,,,0.00,WUHU216HW,2013-02-18 00:07:00,
2013-02-17 19:12:00,13.3,1.2,29.55,North,0,0.0,0.0,58,0.00,,,0.00,WUHU216HW,2013-02-18 00:12:00,
2013-02-17 19:17:00,13.3,1.6,29.55,North,0,0.0,0.0,59,0.00,,,0.00,WUHU216HW,2013-02-18 00:17:00,
2013-02-17 19:22:00,13.1,1.0,29.55,North,0,0.0,0.0,58,0.00,,,0.00,WUHU216HW,2013-02-18 00:22:00,
2013-02-17 19:27:00,13.1,1.0,29.55,North,0,0.0,0.0,58,0.00,,,0.00,WUHU216HW,2013-02-18 00:27:00,
2013-02-17 19:32:00,13.0,1.3,29.55,North,0,0.0,0.0,59,0.00,,,0.00,WUHU216HW,2013-02-18 00:32:00,
2013-02-17 19:37:00,13.1,1.5,29.56,North,0,0.0,0.0,59,0.00,,,0.00,WUHU216HW,2013-02-18 00:37:00,
2013-02-17 19:42:00,13.1,1.5,29.55,North,0,0.0,0.0,59,0.00,,,0.00,WUHU216HW,2013-02-18 00:42:00,
2013-02-17 19:47:00,13.1,1.5,29.55,North,0,0.0,0.0,59,0.00,,,0.00,WUHU216HW,2013-02-18 00:47:00,
2013-02-17 19:52:00,13.0,1.6,29.55,North,0,0.0,0.0,60,0.00,,,0.00,WUHU216HW,2013-02-18 00:52:00,
2013-02-17 19:57:00,12.8,1.1,29.56,North,0,0.0,0.0,59,0.00,,,0.00,WUHU216HW,2013-02-18 00:57:00,
2013-02-17 20:02:00,12.8,1.4,29.56,North,0,0.0,0.0,60,0.00,,,0.00,WUHU216HW,2013-02-18 01:02:00,
2013-02-17 20:07:00,12.8,1.1,29.56,North,0,0.0,0.0,59,0.00,,,0.00,WUHU216HW,2013-02-18 01:07:00,
2013-02-17 20:12:00,12.8,1.4,29.56,North,0,0.0,0.0,60,0.00,,,0.00,WUHU216HW,2013-02-18 01:12:00,
2013-02-17 20:17:00,12.8,1.4,29.56,North,0,0.0,0.0,60,0.00,,,0.00,WUHU216HW,2013-02-18 01:17:00,
2013-02-17 20:22:00,12.8,1.1,29.56,North,0,0.0,0.0,59,0.00,,,0.00,WUHU216HW,2013-02-18 01:22:00,
2013-02-17 20:27:00,12.8,1.4,29.57,North,0,0.0,0.0,60,0.00,,,0.00,WUHU216HW,2013-02-18 01:27:00,
2013-02-17 20:32:00,12.6,0.9,29.57,North,0,0.0,0.0,59,0.00,,,0.00,WUHU216HW,2013-02-18 01:32:00,
2013-02-17 20:37:00,12.6,1.3,29.57,North,0,0.0,0.0,60,0.00,,,0.00,WUHU216HW,2013-02-18 01:37:00,
2013-02-17 20:42:00,12.6,1.3,29.57,North,0,0.0,0.0,60,0.00,,,0.00,WUHU216HW,2013-02-18 01:42:00,
2013-02-17 20:47:00,12.6,1.3,29.57,North,0,0.0,0.0,60,0.00,,,0.00,WUHU216HW,2013-02-18 01:47:00,
2013-02-17 20:52:00,12.6,1.3,29.57,North,0,0.0,0.0,60,0.00,,,0.00,WUHU216HW,2013-02-18 01:52:00,
2013-02-17 20:57:00,12.6,1.3,29.57,North,0,0.0,0.0,60,0.00,,,0.00,WUHU216HW,2013-02-18 01:57:00,
2013-02-17 21:02:00,12.6,1.3,29.57,North,0,0.0,0.0,60,0.00,,,0.00,WUHU216HW,2013-02-18 02:02:00,
2013-02-17 21:07:00,12.6,1.3,29.57,North,0,0.0,0.0,60,0.00,,,0.00,WUHU216HW,2013-02-18 02:07:00,
2013-02-17 21:12:00,12.4,1.5,29.57,North,0,0.0,0.0,61,0.00,,,0.00,WUHU216HW,2013-02-18 02:12:00,
2013-02-17 21:17:00,12.4,1.5,29.58,North,0,0.0,0.0,61,0.00,,,0.00,WUHU216HW,2013-02-18 02:17:00,
2013-02-17 21:22:00,12.4,1.8,29.58,North,0,0.0,0.0,62,0.00,,,0.00,WUHU216HW,2013-02-18 02:22:00,
2013-02-17 21:27:00,12.2,1.6,29.58,North,0,0.0,0.0,62,0.00,,,0.00,WUHU216HW,2013-02-18 02:27:00,
2013-02-17 21:32:00,12.2,1.6,29.58,North,0,0.0,0.0,62,0.00,,,0.00,WUHU216HW,2013-02-18 02:32:00,
2013-02-17 21:37:00,12.2,1.9,29.58,North,0,0.0,0.0,63,0.00,,,0.00,WUHU216HW,2013-02-18 02:37:00,
2013-02-17 21:42:00,12.2,1.9,29.58,North,0,0.0,0.0,63,0.00,,,0.00,WUHU216HW,2013-02-18 02:42:00,
2013-02-17 21:47:00,12.2,2.3,29.58,North,0,0.0,0.0,64,0.00,,,0.00,WUHU216HW,2013-02-18 02:47:00,
2013-02-17 21:52:00,12.2,2.3,29.59,North,0,0.0,0.0,64,0.00,,,0.00,WUHU216HW,2013-02-18 02:52:00,
2013-02-17 21:57:00,12.2,2.3,29.59,North,0,0.0,0.0,64,0.00,,,0.00,WUHU216HW,2013-02-18 02:57:00,
2013-02-17 22:02:00,12.2,2.3,29.59,North,0,0.0,0.0,64,0.00,,,0.00,WUHU216HW,2013-02-18 03:02:00,
2013-02-17 22:07:00,12.2,2.3,29.59,North,0,0.0,0.0,64,0.00,,,0.00,WUHU216HW,2013-02-18 03:07:00,
2013-02-17 22:12:00,12.4,2.4,29.59,North,0,0.0,0.0,64,0.00,,,0.00,WUHU216HW,2013-02-18 03:12:00,
2013-02-17 22:17:00,12.4,2.4,29.59,North,0,0.0,0.0,64,0.00,,,0.00,WUHU216HW,2013-02-18 03:17:00,
2013-02-17 22:22:00,12.2,2.6,29.59,North,0,0.0,0.0,65,0.00,,,0.00,WUHU216HW,2013-02-18 03:22:00,
2013-02-17 22:27:00,12.1,2.4,29.60,North,0,0.0,0.0,65,0.00,,,0.00,WUHU216HW,2013-02-18 03:27:00,
2013-02-17 22:32:00,12.1,2.4,29.60,North,0,0.0,0.0,65,0.00,,,0.00,WUHU216HW,2013-02-18 03:32:00,
2013-02-17 22:37:00,12.1,3.2,29.60,North,0,0.0,0.0,67,0.00,,,0.00,WUHU216HW,2013-02-18 03:37:00,
2013-02-17 22:42:00,11.9,2.6,29.61,North,0,0.0,0.0,66,0.00,,,0.00,WUHU216HW,2013-02-18 03:42:00,
2013-02-17 22:47:00,11.9,3.2,29.61,North,0,0.0,0.0,68,0.00,,,0.00,WUHU216HW,2013-02-18 03:47:00,
2013-02-17 22:52:00,11.9,3.6,29.61,North,0,0.0,0.0,69,0.00,,,0.00,WUHU216HW,2013-02-18 03:52:00,
2013-02-17 22:57:00,11.7,3.4,29.62,North,0,0.0,0.0,69,0.00,,,0.00,WUHU216HW,2013-02-18 03:57:00,
2013-02-17 23:02:00,11.7,3.8,29.62,North,0,0.0,0.0,70,0.00,,,0.00,WUHU216HW,2013-02-18 04:02:00,
2013-02-17 23:07:00,11.7,4.1,29.62,North,0,0.0,0.0,71,0.00,,,0.00,WUHU216HW,2013-02-18 04:07:00,
2013-02-17 23:12:00,11.5,3.9,29.62,North,0,0.0,0.0,71,0.00,,,0.00,WUHU216HW,2013-02-18 04:12:00,
2013-02-17 23:17:00,11.5,4.1,29.63,North,0,0.0,0.0,72,0.00,,,0.00,WUHU216HW,2013-02-18 04:17:00,
2013-02-17 23:22:00,11.5,4.1,29.63,North,0,0.0,0.0,72,0.00,,,0.00,WUHU216HW,2013-02-18 04:22:00,
2013-02-17 23:28:00,11.7,4.3,29.63,North,0,0.0,0.0,72,0.00,,,0.00,WUHU216HW,2013-02-18 04:28:00,
2013-02-17 23:33:00,11.7,4.1,29.63,North,0,0.0,0.0,71,0.00,,,0.00,WUHU216HW,2013-02-18 04:33:00,
2013-02-17 23:38:00,11.7,3.8,29.64,North,0,0.0,0.0,70,0.00,,,0.00,WUHU216HW,2013-02-18 04:38:00,
2013-02-17 23:43:00,11.5,3.6,29.64,North,0,0.0,0.0,70,0.00,,,0.00,WUHU216HW,2013-02-18 04:43:00,
2013-02-17 23:48:00,11.5,3.2,29.64,North,0,0.0,0.0,69,0.00,,,0.00,WUHU216HW,2013-02-18 04:48:00,
2013-02-17 23:53:00,11.5,3.0,29.64,North,0,0.0,0.0,68,0.00,,,0.00,WUHU216HW,2013-02-18 04:53:00,
2013-02-17 23:58:00,11.7,3.2,29.64,North,0,0.0,0.0,68,0.00,,,0.00,WUHU216HW,2013-02-18 04:58:00,